Location: Central Falls
(41.8900°N, 71.3929°W)
Time: 07:59:59
(UTC+00:00)

Tiros 1 despin weight - Pass Details

Date: 05 December 2023
Orbit: 581 x 624 km, 48.2° (Epoch: 29 February)

Event Time Altitude Azimuth Distance (km) Brightness Sun altitude
Rises 20:37:48 0° 182° (S) 2,805 ? 4.9°
Reaches altitude 10° 20:41:57 10° 144° (SE) 1,900 ? 4.3°
Drops below altitude 10° 20:43:53 10° 118° (ESE) 1,899 ? 4.0°
Enters shadow 20:49:29 -4° 73° (ENE) 3,273 ? 3.1°
Exits shadow 21:24:35 -74° 32° (NNE) 12,886 ? -2.5°
Maximum altitude 22:23:27 57° 147° (SSE) 685 ? -12.5°
Sets 22:30:00 0° 64° (ENE) 2,797 - -13.6°
